Wind_Speed
31 32 32 31 31 32 32 31 31 31 31 30 28 28 29 30 30 31 31 30 29 29 29 28 28 28 28 28 28 30 32 33 34 35 35 36 37 38 40 41 41 41 41 40 39 39 39 38 38 38 38 37 36 36 35 35 34 34 34 34 35 35 35 34 34 34 35 37 37 38 38 38 37 37 37 37 37 37 36 35 34 34 33 33 33 33
31 31 31 30 30 31 32 32 31 30 30 30 29 29 30 30 31 31 29 28 27 26 26 26 26 27 27 28 29 30 32 33 34 35 35 36 38 39 41 42 42 41 40 39 39 38 38 37 37 37 36 36 35 34 34 34 33 34 34 34 35 36 36 36 36 36 37 38 38 38 38 37 37 37 37 36 36 35 35 35 34 34 33 33 33 32
30 30 29 29 29 30 31 32 32 31 30 30 30 30 30 30 29 27 25 24 24 25 25 25 26 28 29 30 31 31 32 32 33 34 36 38 39 41 42 42 41 40 39 38 38 37 37 37 36 36 36 35 34 34 33 33 33 34 35 35 36 36 37 37 38 38 39 39 38 38 38 37 37 36 35 34 33 33 32 33 33 33 32 32 32 32
27 27 28 28 29 30 30 31 31 30 29 30 30 30 29 27 25 24 23 24 25 26 25 26 28 29 30 31 31 31 31 32 34 35 37 38 40 41 41 40 39 38 37 37 36 36 36 36 36 35 35 34 33 33 33 34 34 35 36 37 37 38 38 38 39 39 39 39 38 38 38 37 36 35 34 33 32 31 30 31 30 30 30 29 30 31
25 25 27 29 29 30 31 30 30 30 30 29 28 27 25 23 22 22 23 25 26 26 28 29 30 30 31 31 31 31 32 33 34 36 37 38 39 39 39 38 37 36 36 35 35 35 34 34 34 33 33 32 32 33 34 35 36 37 37 38 38 39 39 39 39 39 39 39 38 38 37 36 35 34 34 32 31 30 29 28 27 27 26 27 28 30
25 26 29 29 29 30 31 31 31 30 28 26 24 23 22 22 22 23 23 25 27 27 29 30 30 30 30 31 31 31 32 33 34 35 36 37 38 38 37 36 35 35 34 34 33 32 32 32 32 33 33 33 34 35 36 37 38 38 39 39 39 39 39 39 39 39 39 38 38 37 36 35 34 34 34 32 30 28 27 26 25 25 25 26 28 29
28 29 30 30 30 31 31 30 29 26 23 21 20 21 22 23 23 23 24 26 28 29 29 30 30 30 29 29 30 30 31 32 33 34 35 35 35 35 35 34 33 33 32 32 31 31 31 31 32 33 34 35 36 37 38 39 39 40 40 40 40 40 39 39 39 39 38 37 37 36 35 33 33 33 33 31 29 27 26 25 25 25 25 27 29 29
29 30 30 30 30 30 29 26 23 21 19 18 19 21 23 24 25 26 27 28 29 29 29 30 30 29 29 29 29 30 31 31 32 32 33 33 33 33 33 32 31 31 30 29 29 30 31 32 33 34 36 37 38 39 40 40 41 41 41 41 40 40 39 39 38 38 37 36 36 35 34 33 32 32 32 30 28 26 25 25 25 26 27 28 29 30
28 29 30 30 28 25 22 19 17 17 18 20 21 21 23 25 27 29 30 30 30 30 30 30 30 30 29 29 29 29 30 31 31 32 32 32 32 32 32 31 29 28 27 28 29 30 32 33 34 36 37 39 40 41 41 41 41 41 41 40 40 39 38 38 37 36 36 35 34 34 33 32 32 31 30 29 27 26 25 26 26 27 28 29 30 30
29 28 27 25 21 17 15 15 17 20 22 23 23 22 22 24 26 28 30 32 32 31 30 29 29 29 30 29 29 29 30 31 32 33 33 33 33 33 31 29 27 26 26 27 29 31 33 34 36 37 38 39 40 41 41 41 41 40 40 39 38 37 37 36 35 35 35 34 33 33 32 32 31 30 29 28 27 27 27 27 27 27 27 28 29 30
26 23 19 16 14 14 16 19 22 24 24 25 25 26 25 25 26 26 27 29 31 32 30 29 28 28 29 29 29 29 30 32 32 33 32 32 31 30 27 25 24 25 26 28 30 32 34 35 36 37 38 39 40 40 40 39 39 38 38 37 36 36 35 35 34 34 34 33 33 32 32 32 31 29 28 28 28 28 28 28 28 27 28 28 29 30
17 14 12 13 16 19 22 24 24 25 25 25 25 26 28 29 29 27 26 26 28 30 30 30 29 28 28 28 29 30 31 31 31 31 29 27 24 22 22 22 24 26 27 30 31 32 33 34 35 36 37 37 37 38 38 37 37 36 36 35 35 35 34 34 34 34 33 33 33 33 32 31 30 28 28 28 29 30 30 30 29 29 29 30 30 31
12 13 16 19 20 21 22 23 24 25 25 24 22 21 24 29 30 29 28 28 28 29 29 30 29 29 28 28 28 29 30 30 29 27 24 21 19 20 22 24 27 29 30 30 31 31 32 32 33 33 34 34 35 36 36 36 36 35 35 35 34 34 34 34 34 34 34 34 33 33 32 30 28 28 28 29 30 30 31 30 30 30 30 31 31 32
15 18 19 19 19 20 21 22 22 23 24 25 25 25 28 30 30 29 27 28 29 29 29 28 28 28 27 26 26 27 27 25 24 22 20 19 21 23 25 27 29 31 31 31 31 31 31 30 30 31 31 32 33 34 35 35 35 35 35 34 34 34 34 35 34 34 34 32 31 30 29 28 27 27 28 30 31 31 31 31 30 30 31 31 31 32
17 17 14 12 15 19 22 23 23 24 25 27 28 29 29 29 28 27 25 25 27 28 27 26 26 26 25 24 23 23 21 19 18 19 21 23 25 27 28 29 31 33 32 31 31 31 30 29 29 30 31 32 33 35 35 36 36 36 35 35 35 35 35 35 34 32 30 29 28 28 27 28 28 29 31 32 32 32 32 31 31 31 31 31 32 32
18 15 11 10 14 20 23 25 25 25 27 29 29 28 27 26 25 25 23 23 24 24 22 20 19 19 22 25 24 20 18 18 20 23 26 28 30 30 29 29 31 32 31 30 29 29 29 29 29 30 30 32 33 35 36 36 37 37 36 35 34 32 31 31 30 30 30 29 29 30 30 31 31 32 33 33 32 32 31 32 32 32 32 32 32 32
18 17 16 14 17 21 26 27 26 27 27 28 27 26 24 23 23 22 21 20 20 19 17 13 10 9 13 22 25 22 21 22 25 27 28 30 30 30 28 28 29 30 31 30 29 29 29 28 29 29 30 31 33 35 36 37 37 37 35 32 30 29 30 30 31 32 33 33 33 33 34 34 34 34 34 34 33 32 31 32 32 32 32 32 32 32
19 19 20 18 19 22 26 26 26 26 26 25 25 24 23 22 22 22 21 21 19 18 17 14 10 8 8 8 18 27 25 25 25 26 27 28 29 29 27 27 28 29 30 29 29 29 28 28 29 30 30 32 34 36 37 37 36 35 33 32 32 33 33 34 34 34 35 35 35 35 35 35 35 35 34 33 32 31 31 32 32 32 32 32 33 33
21 22 22 21 22 24 25 25 24 24 24 23 23 22 21 22 23 23 23 23 22 22 20 14 11 11 11 14 22 29 27 25 24 25 25 26 28 29 27 26 26 27 28 28 28 28 28 29 31 31 32 33 34 35 34 32 31 31 33 35 36 36 36 35 35 35 35 35 35 35 35 35 35 34 34 33 32 32 31 31 32 32 32 33 33 33
24 25 24 24 24 24 24 24 23 22 21 21 20 20 21 24 26 26 26 26 25 24 23 19 16 17 20 23 27 29 27 24 23 23 24 25 27 28 27 25 25 25 27 27 27 27 28 30 31 31 31 31 30 30 31 32 34 35 37 37 37 37 36 35 34 34 34 34 34 34 34 34 34 34 33 32 31 31 30 31 32 32 33 33 34 33
25 26 26 25 24 22 21 21 21 21 21 22 23 25 26 26 25 25 25 24 24 24 23 20 19 22 25 26 27 27 25 23 22 22 23 24 25 26 26 24 24 25 27 28 28 28 28 29 30 30 29 28 28 30 32 34 35 37 37 37 37 36 35 34 33 33 33 33 33 33 33 33 33 33 33 32 31 30 30 31 32 33 33 34 33 33
26 26 27 26 24 22 20 20 22 24 25 26 26 25 24 24 23 23 24 24 23 22 22 21 24 27 28 27 27 26 24 23 22 23 21 15 18 25 26 26 25 25 26 27 27 26 27 27 26 26 27 28 30 32 33 35 35 36 36 36 35 35 35 34 34 34 33 33 33 33 33 33 33 33 32 31 30 30 31 32 33 34 34 33 33 32
27 27 26 24 22 20 20 21 24 27 28 28 27 26 24 23 22 22 24 24 24 24 26 28 29 30 28 26 25 24 24 23 23 23 20 12 14 22 27 26 24 24 24 25 25 25 26 26 27 27 29 30 32 33 34 34 35 35 35 35 35 35 35 34 34 34 33 33 33 34 34 33 33 32 31 31 31 31 32 33 34 34 34 33 32 32
26 25 23 21 21 22 24 25 27 28 28 28 27 27 26 25 24 24 24 25 26 26 28 29 28 26 24 22 23 25 26 24 24 22 18 12 13 20 26 25 23 23 24 26 27 27 28 28 28 29 30 31 32 33 34 34 35 35 35 35 35 34 34 34 34 34 34 34 34 34 34 34 33 32 31 32 32 32 33 33 33 33 33 32 32 32
24 23 23 23 25 27 28 30 30 30 30 30 29 28 27 26 26 27 27 27 26 26 25 23 19 16 19 22 24 26 26 25 23 21 18 14 16 21 25 25 23 23 25 27 28 28 28 28 29 29 30 31 31 32 33 34 34 34 34 34 34 34 34 34 34 34 34 35 35 35 35 34 33 33 32 33 33 33 33 33 33 33 33 32 32 32
24 25 26 28 29 31 32 32 32 32 32 31 30 29 28 27 26 26 25 24 23 22 19 15 11 11 17 21 22 23 24 23 22 20 20 16 16 20 24 25 24 23 24 27 27 27 27 28 29 30 30 31 31 32 32 33 33 34 34 33 33 33 33 34 34 34 35 35 35 35 35 34 34 33 33 33 33 33 33 34 34 34 33 33 32 32
25 26 28 30 31 31 32 32 32 32 31 31 30 29 28 27 25 23 21 20 20 19 16 10 9 11 13 15 17 20 22 22 21 21 21 19 16 16 20 23 23 23 24 26 27 28 28 28 29 30 30 30 31 31 31 31 32 32 32 31 32 32 33 33 34 34 35 35 35 35 35 35 34 34 34 34 33 33 34 34 34 34 33 32 32 31
26 27 28 29 30 31 31 31 31 31 30 30 29 29 27 25 22 20 19 21 21 19 15 11 9 9 8 8 14 21 23 22 22 22 21 20 14 13 19 23 24 24 24 25 27 28 28 27 28 28 28 28 28 28 28 28 28 29 29 30 31 32 33 34 35 35 35 35 35 35 35 35 34 34 34 33 33 34 34 34 34 33 32 31 29 29
27 28 28 29 29 30 30 30 30 29 29 28 28 27 26 24 21 20 21 22 22 18 15 12 10 9 9 11 16 22 22 22 22 22 21 18 14 15 22 23 24 24 23 22 23 25 25 25 25 24 24 25 25 25 25 26 26 27 29 30 32 33 34 34 35 35 34 35 35 34 34 34 33 32 33 33 34 34 34 34 33 32 30 28 27 27
28 28 28 28 28 28 28 28 28 27 27 27 26 26 24 23 21 21 22 22 21 18 15 14 13 12 11 12 13 13 14 19 21 21 21 15 12 15 22 22 23 23 22 16 12 12 16 19 22 22 22 23 24 24 25 26 27 28 29 30 31 32 32 33 33 33 33 32 32 32 31 31 31 32 33 34 34 34 34 33 32 30 28 26 26 26
29 28 28 28 28 27 27 27 26 26 26 25 25 24 23 22 21 21 21 21 20 19 18 17 17 16 14 9 6 5 6 17 23 23 22 18 15 16 21 20 21 22 22 16 8 4 7 11 18 23 22 23 24 25 26 27 27 27 27 27 28 28 29 29 29 29 29 30 30 30 30 31 32 33 34 34 34 33 33 32 30 29 27 25 24 24
28 28 28 27 27 27 26 26 25 25 25 24 24 23 22 21 21 20 20 21 20 20 20 20 19 19 18 12 9 7 8 20 26 26 25 20 19 20 21 20 20 22 23 21 14 7 6 5 13 23 24 25 25 25 26 26 25 25 24 24 24 25 26 26 25 26 27 28 29 30 31 32 33 33 33 33 32 32 32 31 30 28 27 24 23 23
27 27 27 27 26 26 25 25 25 25 24 23 23 23 22 21 21 21 21 21 21 21 21 21 20 20 19 17 15 15 18 24 27 27 26 22 19 19 21 21 21 21 22 23 20 16 11 8 13 20 25 25 25 24 24 23 23 22 22 22 22 23 25 25 25 25 26 28 29 29 30 31 31 31 31 31 31 31 30 30 29 27 26 24 23 22
27 26 26 26 26 25 25 24 24 24 24 23 22 22 22 22 22 22 22 22 22 22 22 21 21 20 19 17 16 17 22 25 27 27 26 23 20 19 22 21 20 19 19 18 19 19 16 16 15 15 17 23 25 23 21 21 21 21 22 22 23 24 26 26 25 25 26 27 27 28 28 29 29 29 29 29 29 28 28 27 27 26 26 25 24 22
26 26 25 25 24 24 24 24 23 23 23 23 23 23 23 23 24 24 24 24 24 23 23 23 23 22 21 19 16 16 21 26 28 28 27 25 22 20 22 21 21 19 17 15 13 12 9 14 16 14 10 14 19 21 21 22 23 23 24 24 25 25 26 25 25 25 26 26 27 27 27 28 28 28 28 27 27 26 26 26 26 26 26 26 25 24
24 24 24 23 23 23 23 23 23 23 23 23 23 24 24 24 25 25 25 26 25 25 25 25 25 25 25 23 21 21 24 28 30 29 28 27 25 22 21 22 23 22 17 15 13 10 8 9 14 16 14 9 11 17 23 25 25 24 24 24 24 25 25 25 25 26 26 26 26 26 27 27 27 27 27 27 26 26 26 27 27 27 27 27 27 28
22 22 23 23 22 22 23 23 24 24 24 24 24 25 25 25 26 27 27 27 27 27 27 27 27 26 27 26 26 27 28 30 31 31 32 31 30 26 22 23 25 24 19 16 15 14 11 10 11 11 10 8 7 11 20 25 26 25 24 24 23 24 24 25 26 26 26 25 25 25 26 26 26 26 26 26 26 26 26 26 26 26 26 26 27 28
21 21 22 23 23 23 23 24 24 24 25 25 26 26 27 27 27 28 28 28 28 28 28 28 27 27 28 29 30 31 32 33 34 35 36 34 32 30 25 24 24 23 21 20 19 17 12 10 10 9 8 7 10 16 21 23 23 23 25 25 24 23 24 25 25 25 24 23 24 24 24 24 25 25 25 25 25 25 24 24 24 23 23 23 24 25
20 21 22 23 23 23 23 24 25 25 26 26 27 27 27 27 27 27 27 26 26 27 27 27 27 27 29 30 30 31 31 32 33 34 35 34 32 30 27 24 23 23 23 22 22 20 15 11 8 8 9 8 12 18 22 22 21 22 24 25 25 24 23 23 23 23 23 23 24 24 24 24 24 24 24 23 23 22 21 21 21 21 20 20 20 21
21 22 22 23 24 24 24 25 26 26 27 27 27 27 27 26 26 26 26 26 25 25 26 26 26 26 27 27 27 28 29 31 31 32 32 32 31 30 27 24 23 22 22 21 20 20 18 15 13 13 12 10 10 12 17 20 21 22 22 19 18 21 24 23 23 23 24 24 23 23 23 23 22 22 22 22 22 21 21 21 21 20 19 19 18 17
21 22 23 24 24 25 25 26 27 27 27 26 26 26 26 25 25 25 25 25 25 25 25 25 25 25 25 25 26 27 28 28 28 29 30 30 31 29 27 25 23 21 21 21 21 21 20 18 17 17 17 15 14 14 16 19 21 23 22 16 16 21 26 25 24 23 23 23 22 22 22 22 22 22 22 22 22 22 22 22 21 20 19 18 17 16
22 22 23 24 25 26 26 27 27 27 26 26 25 25 25 24 24 25 25 25 25 25 25 25 25 25 25 24 25 25 25 25 26 27 28 28 27 26 25 23 22 22 21 21 21 21 20 19 18 17 17 17 14 12 12 18 22 22 20 19 21 23 25 25 23 22 22 22 23 23 22 22 22 21 21 21 21 21 21 20 19 18 17 17 17 18
22 23 24 25 25 26 26 26 26 26 25 25 24 24 25 25 25 25 25 25 25 25 25 25 24 23 22 23 23 24 24 24 24 24 24 23 22 20 20 21 21 22 22 20 19 19 20 20 18 18 18 18 16 12 11 15 20 21 21 21 21 16 10 16 22 24 23 23 23 24 23 22 22 21 22 21 21 20 18 16 15 14 14 15 16 17
23 24 25 25 25 26 26 25 25 25 25 25 25 25 25 25 25 24 24 24 25 25 25 25 24 22 20 20 21 23 23 23 23 21 20 18 17 17 19 20 21 21 21 20 18 18 19 19 18 18 18 17 16 14 13 14 17 19 21 22 20 15 10 14 20 24 24 24 24 24 23 22 22 21 21 20 19 18 16 14 13 11 10 10 11 12
23 24 24 25 25 25 25 25 25 25 25 25 25 25 25 25 25 24 23 24 25 25 25 23 21 19 17 18 20 22 22 22 21 18 17 16 17 19 20 20 20 20 20 20 19 18 16 16 17 18 18 17 16 15 14 15 16 18 20 22 21 20 20 22 22 22 21 22 22 23 23 23 22 20 18 17 16 15 14 13 12 12 11 9 8 8
23 24 24 25 25 24 24 25 25 25 25 25 25 25 25 25 25 24 24 23 23 23 23 23 19 15 12 15 18 20 20 19 18 17 17 18 19 21 20 19 19 19 20 20 20 19 18 17 17 17 17 16 15 16 16 16 15 16 19 21 22 21 20 21 21 20 20 19 20 22 23 23 20 16 13 13 13 14 14 14 13 13 13 12 11 10
23 24 24 24 24 24 25 25 25 24 25 25 25 25 25 25 24 24 24 23 22 22 21 21 19 16 15 16 17 16 15 15 17 18 19 19 20 21 20 20 20 20 20 20 20 19 19 19 18 18 16 12 10 11 15 16 16 15 17 19 19 18 17 18 19 21 20 19 20 21 22 21 17 14 13 13 13 13 14 15 16 17 16 15 14 13
23 24 24 24 24 24 24 25 24 24 24 25 25 26 26 25 24 24 23 23 22 21 21 20 18 17 17 17 17 16 15 15 16 17 19 20 20 20 20 20 21 22 21 20 19 18 18 17 16 15 15 13 9 7 11 15 17 17 17 18 17 16 15 17 19 21 21 20 21 21 21 18 14 13 12 12 11 11 13 16 18 20 20 18 17 15
23 23 24 24 23 23 24 24 24 24 24 24 25 26 26 26 24 23 22 22 22 20 19 18 17 16 15 15 16 17 17 16 17 17 18 18 19 19 19 20 21 21 21 21 20 19 18 16 13 10 10 13 13 12 13 16 18 19 18 17 16 15 15 16 18 20 20 21 21 22 21 18 16 15 13 9 7 8 12 15 18 21 23 22 20 18
23 23 23 23 23 23 23 24 24 24 23 24 24 25 26 26 25 23 22 22 21 20 18 18 17 15 13 14 15 16 16 16 16 16 17 18 18 18 18 19 19 19 18 18 17 17 17 15 13 10 8 9 11 13 13 15 17 18 18 18 16 15 15 15 17 20 20 20 20 21 21 19 18 18 15 10 7 7 10 14 18 21 23 24 23 21
23 23 23 23 23 23 23 24 23 23 23 23 24 24 25 24 24 24 23 22 21 19 18 18 16 15 14 14 15 16 16 15 15 15 16 17 17 17 17 17 17 15 13 10 10 11 10 9 8 8 9 10 11 12 13 14 16 16 15 17 18 17 16 16 18 20 21 20 19 19 20 19 19 18 16 12 8 6 7 10 15 19 23 25 24 23
Wind_Direction
295 297 298 298 298 297 297 297 297 297 296 296 296 297 298 298 298 298 298 297 296 295 293 291 290 289 288 287 287 288 290 291 291 291 291 290 291 291 292 293 293 292 291 289 288 287 287 287 286 286 286 286 287 288 288 289 289 289 289 289 288 288 287 286 287 287 288 289 289 289 287 286 285 285 284 283 283 283 282 282 280 278 277 277 277 277
296 296 297 298 298 298 298 298 297 296 295 295 296 297 298 299 299 300 299 298 297 296 294 293 291 290 289 288 288 288 289 289 290 290 290 290 291 291 292 293 293 292 291 290 289 289 288 288 288 287 287 287 288 288 288 289 290 290 290 290 288 287 286 285 285 286 287 288 288 288 286 285 284 283 283 282 281 280 279 278 277 276 276 276 276 276
297 297 298 299 299 298 298 298 297 295 294 294 295 296 297 298 300 300 300 300 299 298 295 293 293 292 291 290 289 289 289 289 289 290 290 291 292 293 293 293 293 292 291 291 290 290 290 289 289 288 287 287 287 287 287 288 288 289 289 288 286 284 283 283 283 284 286 287 287 286 285 284 283 282 282 280 279 277 275 274 273 273 274 275 275 275
295 297 299 300 300 298 296 296 296 295 294 294 294 295 296 297 299 299 299 299 299 298 296 295 294 293 292 291 290 290 290 290 291 292 293 294 294 294 294 293 293 292 292 291 291 290 290 289 289 288 288 288 288 288 288 288 288 288 287 285 284 283 282 282 283 284 286 286 286 285 284 283 282 281 280 278 276 274 272 272 272 273 275 277 278 278
295 297 299 301 300 298 296 296 296 296 296 294 294 294 295 297 297 298 297 298 298 297 297 297 296 294 293 292 292 292 292 293 294 294 295 295 295 295 294 293 293 293 292 292 291 291 290 291 291 291 292 293 293 293 292 291 290 289 288 286 285 284 284 284 285 285 286 286 285 284 282 281 279 278 277 276 275 274 273 274 276 278 280 282 282 281
298 298 299 298 297 296 297 297 297 296 296 295 294 295 296 297 296 296 296 298 299 299 299 299 298 296 294 293 293 294 295 295 295 295 295 295 294 294 294 293 293 293 293 292 292 292 293 294 294 295 296 296 296 295 294 292 291 289 288 288 287 287 287 287 286 286 285 285 284 282 280 278 276 276 275 275 275 275 276 279 281 283 284 285 283 281
299 297 296 295 294 294 295 295 295 295 295 296 297 298 298 297 296 296 296 298 300 300 301 300 299 297 296 295 295 296 296 295 295 294 293 293 292 293 293 293 294 293 293 293 293 294 295 295 295 295 295 295 294 293 292 291 290 289 288 288 288 287 287 287 286 285 284 283 282 281 278 276 275 274 273 273 273 275 278 281 282 283 283 282 282 282
296 295 294 293 293 294 293 292 292 293 295 298 300 300 298 298 298 299 299 300 301 302 302 302 301 299 297 297 296 296 295 294 293 291 291 291 291 291 292 292 293 293 293 293 294 294 294 294 294 294 294 294 293 292 291 290 289 288 288 287 287 287 286 286 285 284 283 282 281 280 278 276 275 273 272 272 273 276 278 280 281 281 280 279 280 281
291 291 291 291 291 292 294 294 295 299 302 301 298 296 297 299 301 303 303 303 303 304 304 303 301 299 298 297 296 295 293 292 290 290 289 289 289 290 291 291 292 292 292 293 293 293 293 293 294 294 294 293 292 291 290 289 288 288 287 287 287 286 285 284 283 282 281 281 280 280 278 277 275 273 272 273 275 277 279 281 281 280 279 278 278 279
287 286 288 289 290 293 299 304 306 306 304 300 296 294 295 298 303 305 306 306 306 306 305 302 300 298 297 296 295 294 293 291 289 288 287 287 287 288 289 290 291 292 292 293 293 293 293 293 293 293 293 292 291 290 289 288 288 288 287 287 286 286 285 284 283 282 281 280 280 279 278 277 276 275 275 275 277 278 280 281 281 281 280 279 279 279
286 286 289 296 304 308 308 307 306 305 304 302 300 299 299 301 304 307 307 307 306 306 304 300 297 295 295 295 295 294 294 292 289 287 286 285 285 286 288 291 292 293 294 293 293 293 293 292 292 292 291 290 290 289 289 288 288 288 287 287 286 286 285 283 283 282 281 280 279 278 277 277 276 276 276 277 277 279 280 282 283 283 282 282 281 281
290 297 306 314 315 312 309 307 306 306 306 305 305 305 305 305 307 307 306 305 304 304 302 299 296 294 293 293 294 294 293 290 288 287 286 285 286 289 293 295 296 295 295 295 294 292 292 291 291 290 290 289 289 289 289 288 288 288 287 287 286 285 284 283 282 281 280 278 277 276 275 274 274 274 275 275 277 279 281 283 284 284 283 283 282 282
308 316 316 312 309 308 308 308 308 308 308 308 308 308 307 308 308 306 303 300 299 299 299 297 296 294 292 292 291 290 289 287 286 286 286 288 293 298 300 300 298 297 296 295 293 292 291 291 290 290 289 289 289 288 289 288 288 288 287 286 286 285 284 283 281 281 279 278 277 276 275 273 272 272 273 275 277 279 282 283 283 283 282 282 281 281
317 315 311 308 306 306 307 308 308 308 308 308 307 307 306 306 306 304 301 298 297 296 296 295 294 293 293 292 289 287 284 284 285 287 290 293 297 301 302 301 299 297 296 295 293 292 291 291 290 289 288 288 288 288 288 288 288 287 287 286 286 285 285 283 282 281 281 280 279 277 275 274 273 273 275 277 279 281 282 282 282 282 281 281 280 279
314 312 308 305 305 306 307 308 308 307 307 307 307 306 305 304 303 301 299 297 296 297 297 296 294 294 295 295 294 291 287 286 289 294 297 298 299 301 302 300 298 296 295 294 292 291 291 290 288 287 286 287 287 288 288 288 288 288 288 287 287 286 286 285 284 283 282 281 280 278 277 276 277 278 279 280 281 281 281 281 281 281 281 280 279 278
311 308 305 304 305 306 307 307 307 306 306 306 306 305 303 302 300 299 298 296 298 299 299 299 299 298 298 301 302 301 300 299 300 301 300 299 299 300 300 299 296 295 294 293 291 291 291 289 287 285 284 285 286 288 288 288 288 288 287 286 286 287 288 289 288 287 286 284 282 281 280 280 280 281 281 282 282 281 281 281 280 280 280 279 278 277
308 306 305 305 305 306 307 307 306 306 305 305 304 302 300 299 299 299 299 299 301 302 303 303 302 300 302 304 304 305 305 305 303 302 300 299 298 299 299 297 294 293 293 292 291 289 289 286 285 283 282 283 285 287 287 287 287 287 287 289 290 292 293 292 291 289 287 286 284 283 283 282 282 282 282 282 281 281 280 280 280 280 279 279 278 276
306 306 306 305 305 305 306 307 306 305 304 303 303 302 301 301 302 303 303 304 304 304 303 303 301 300 303 305 304 304 304 304 302 300 299 298 298 299 299 296 293 291 291 290 289 288 286 283 282 282 281 283 285 285 285 284 284 286 290 293 295 295 293 290 289 287 286 285 285 284 283 282 282 281 281 280 279 279 278 278 279 279 279 279 278 276
305 305 305 304 304 304 304 304 303 303 303 303 305 306 306 307 307 307 305 304 302 301 300 299 297 297 298 298 300 302 303 302 300 299 298 298 298 298 298 295 291 289 288 288 287 286 283 281 281 282 282 284 286 286 286 286 288 291 293 294 294 293 292 290 289 287 286 285 284 283 282 281 281 280 279 278 276 276 276 278 279 279 279 278 277 276
303 303 302 302 302 301 300 299 299 301 304 307 311 312 310 308 306 304 302 300 299 298 297 296 295 296 296 296 297 299 301 302 302 300 298 297 296 297 297 294 290 288 288 286 286 285 284 283 283 284 284 285 286 287 289 291 293 294 294 293 293 293 292 291 289 288 287 286 284 283 282 281 280 279 277 276 275 275 277 278 279 279 278 278 277 276
300 299 299 299 298 296 294 296 299 304 308 311 311 308 305 304 302 301 300 299 298 297 297 295 294 294 294 293 293 295 300 303 303 300 298 296 295 295 295 294 291 288 288 288 288 288 286 285 284 284 287 287 288 289 290 290 291 291 292 292 292 292 291 290 289 288 287 286 284 283 282 281 280 279 278 277 277 278 278 279 279 278 278 278 278 277
296 296 296 295 293 290 292 296 303 307 309 308 306 303 300 300 299 299 299 300 299 298 297 295 293 292 290 287 288 293 299 302 299 296 295 292 291 293 295 295 292 289 288 288 289 288 288 288 286 285 287 288 289 289 289 289 289 290 290 290 291 290 290 290 289 288 287 286 285 283 282 282 281 280 279 278 279 279 279 279 279 278 277 277 277 276
293 293 293 293 292 294 298 304 307 307 307 304 301 299 297 296 296 297 298 298 298 296 295 293 290 287 285 285 289 295 300 300 296 292 291 286 288 293 296 296 293 290 287 289 290 291 291 291 290 289 289 289 289 288 288 288 288 288 288 288 288 289 289 289 288 288 287 286 285 284 283 282 281 279 278 278 278 279 279 279 279 278 277 276 275 275
294 293 293 296 300 304 307 307 306 306 305 303 302 300 298 296 295 295 295 295 294 292 291 289 287 285 286 291 296 299 300 299 295 291 288 283 285 291 295 296 294 291 290 292 293 294 293 292 290 289 289 288 288 287 287 286 286 286 286 287 287 288 288 288 287 287 286 286 285 284 283 281 279 278 277 278 278 279 280 280 279 279 277 275 274 273
298 298 300 304 306 307 306 305 305 305 305 305 304 303 302 300 298 297 295 293 291 289 287 286 285 288 294 299 301 300 299 298 295 290 287 285 286 290 293 295 294 293 292 294 294 294 293 292 291 290 288 287 286 286 285 285 284 285 285 286 286 286 286 286 285 285 285 284 284 283 282 280 279 279 279 279 280 280 281 280 279 277 275 274 272 271
303 303 304 305 305 305 305 304 304 305 305 305 305 305 304 303 301 298 296 293 292 290 289 288 290 295 300 301 300 298 299 299 296 292 288 288 289 290 293 295 294 293 292 294 294 294 293 292 291 290 288 287 286 284 283 282 282 283 283 284 285 285 285 285 284 284 284 284 283 282 282 282 282 282 281 281 281 280 279 278 276 275 273 272 272 271
306 305 304 304 304 304 305 305 305 305 305 305 305 305 304 303 301 298 296 295 295 295 294 293 294 297 299 299 298 298 299 300 298 294 291 289 288 289 292 294 295 294 293 294 294 293 292 290 289 288 287 286 284 282 280 279 280 281 282 283 284 284 284 284 285 285 284 284 283 282 282 282 282 282 281 280 279 278 277 276 275 274 274 273 273 272
307 306 306 305 305 305 305 306 306 305 305 305 305 305 304 303 300 297 296 297 297 296 295 295 295 296 297 295 298 299 300 299 298 296 295 292 288 288 292 296 296 296 295 294 294 292 291 288 286 285 284 283 282 280 279 279 279 280 282 282 283 283 283 283 283 283 283 282 282 281 281 281 281 280 279 278 277 277 276 276 276 277 277 276 275 273
310 308 307 306 306 306 306 305 305 305 305 304 304 305 304 301 296 294 294 295 295 294 294 295 295 295 296 297 299 299 298 297 298 300 301 297 292 290 294 296 297 296 297 296 295 293 290 288 286 284 282 283 283 283 283 283 283 283 282 282 281 281 281 281 281 280 280 280 280 279 279 279 279 279 278 279 279 279 279 278 278 278 278 275 273 270
312 310 309 308 307 306 306 305 305 305 304 304 304 303 302 298 293 290 289 291 292 293 295 297 297 297 297 299 298 297 295 298 302 305 306 302 294 292 295 296 296 296 297 298 296 293 291 292 291 289 287 288 289 289 288 288 287 285 283 281 280 279 279 279 279 279 279 279 279 279 278 278 279 280 280 281 281 280 280 279 278 276 274 271 268 265
312 311 310 309 308 307 307 307 306 305 305 304 304 302 301 297 293 290 289 291 292 292 294 295 296 296 297 297 295 293 295 301 303 306 306 301 294 292 295 295 295 295 296 296 295 294 296 296 298 298 295 294 292 291 290 288 287 285 283 282 281 280 280 280 279 279 280 280 280 280 280 281 281 282 281 281 280 279 278 277 275 273 270 266 262 259
311 311 310 308 308 308 308 308 307 307 306 305 304 303 301 299 296 294 294 294 293 292 292 293 294 294 293 290 287 288 292 298 301 303 303 298 293 291 294 294 294 295 296 294 292 292 296 298 302 302 300 297 295 293 291 290 289 287 285 285 283 282 284 284 283 282 282 282 282 283 283 283 282 282 281 280 279 278 277 275 273 271 268 264 259 256
310 309 308 308 308 308 308 308 308 307 307 306 305 305 304 302 300 299 297 296 294 293 292 292 292 292 291 288 285 285 288 293 297 300 301 298 294 293 294 294 294 295 296 293 291 289 288 290 298 300 300 298 296 294 293 293 293 293 292 290 289 288 288 288 287 286 285 285 284 283 283 282 282 281 280 279 278 277 275 274 272 269 265 262 258 255
309 308 307 308 309 309 309 309 308 308 308 307 307 307 306 305 304 302 300 298 296 293 291 290 290 291 292 291 289 287 289 292 295 299 300 298 295 293 295 295 295 296 296 294 292 291 289 290 294 298 300 299 298 297 297 298 299 299 297 295 293 292 291 290 289 287 285 285 284 282 282 281 281 280 280 279 277 275 274 272 270 267 263 259 256 253
308 309 309 309 310 310 310 311 311 310 310 309 309 308 308 307 306 304 302 300 298 295 292 290 289 289 290 290 290 290 291 294 296 298 299 296 293 292 294 295 295 295 295 293 293 293 289 292 294 296 297 298 300 300 301 303 303 302 299 296 293 291 289 288 287 285 285 284 282 281 281 280 280 280 280 279 277 276 274 272 270 267 262 258 254 252
309 309 310 311 312 312 312 313 313 313 312 311 310 310 309 308 306 305 303 301 299 297 295 292 290 288 287 286 286 287 289 293 295 296 296 294 291 290 291 293 294 294 293 293 293 293 290 291 294 296 296 296 301 304 306 306 305 303 299 296 293 290 288 286 285 284 283 282 281 280 280 280 279 279 279 279 279 277 275 273 270 268 264 260 256 253
310 310 312 314 315 314 314 314 314 314 313 312 312 311 310 308 306 305 303 301 299 298 296 294 291 289 286 284 283 284 286 289 291 292 292 291 289 287 287 289 291 292 290 291 293 295 294 291 292 294 295 297 302 306 307 308 307 304 301 298 295 292 289 288 286 284 282 280 280 280 280 280 280 279 279 280 280 278 276 274 271 268 265 261 258 255
312 313 315 316 317 316 315 315 314 314 314 313 312 311 309 307 305 304 302 300 298 296 296 295 293 290 289 287 285 284 285 286 288 289 290 290 288 286 285 286 287 288 287 287 289 291 292 291 295 300 303 302 301 302 304 306 306 304 302 300 298 294 291 290 289 287 284 282 282 282 283 282 281 281 282 282 281 280 277 275 273 270 265 262 259 256
315 316 316 317 317 316 315 314 314 313 313 311 310 309 308 307 305 303 301 299 298 296 295 294 293 291 291 289 288 287 287 287 288 289 290 289 288 286 285 285 286 287 287 286 286 287 289 293 300 306 307 304 302 302 303 303 303 302 303 303 302 300 296 295 294 292 289 287 286 286 286 286 285 284 283 283 282 279 276 274 273 270 266 263 260 258
316 316 316 316 316 315 314 313 312 312 311 310 310 309 308 308 306 305 303 302 301 300 298 296 294 293 292 290 290 289 289 290 290 290 290 289 288 286 284 284 284 286 288 288 288 289 293 297 300 301 300 298 299 301 303 302 301 302 303 305 305 304 303 302 299 297 294 292 290 289 289 290 289 288 285 284 282 278 275 273 272 270 267 262 257 255
317 316 316 316 315 315 313 312 312 312 311 310 310 310 310 309 309 309 308 307 307 305 303 302 301 299 296 294 293 292 292 292 292 292 291 291 290 289 285 285 285 287 291 292 294 295 297 298 298 297 295 295 297 298 298 298 298 300 301 300 300 301 303 303 301 300 299 298 296 295 294 293 293 291 289 286 283 280 278 275 272 270 268 262 255 250
316 315 315 315 315 314 313 313 312 312 312 312 311 311 311 311 310 310 311 310 310 309 308 308 307 305 302 299 298 296 296 295 294 295 294 295 294 293 291 291 293 295 296 297 297 298 298 297 295 294 293 295 296 296 295 295 297 298 298 297 299 302 305 306 306 306 306 304 303 301 299 297 296 294 293 290 288 287 285 280 274 268 264 259 255 250
316 315 314 314 314 314 314 313 314 314 314 314 313 312 312 311 311 311 310 310 310 311 310 310 308 306 303 302 302 303 302 302 301 300 300 300 301 302 303 304 303 302 301 300 300 300 300 298 294 292 292 293 293 291 289 293 297 299 299 300 301 303 307 309 311 311 310 308 305 304 302 300 299 298 297 296 296 296 296 292 286 277 269 262 258 254
314 314 314 314 314 315 316 316 316 316 316 315 313 313 312 312 311 311 310 310 310 310 311 310 308 306 303 302 305 308 309 309 308 307 307 309 312 315 315 312 308 305 304 302 301 301 301 299 296 293 292 291 289 287 287 291 295 299 301 303 303 301 296 300 305 307 308 307 307 306 305 304 304 303 303 303 305 308 311 312 311 307 298 286 274 266
315 315 315 316 316 316 316 316 316 316 316 315 314 313 314 313 313 312 310 309 309 310 310 309 308 307 306 307 309 311 312 312 312 314 316 320 322 322 319 315 312 310 309 306 303 300 298 296 295 294 293 291 287 284 284 288 293 298 303 307 307 304 299 298 300 301 302 304 306 309 311 312 310 308 306 307 312 318 326 331 333 334 335 331 320 304
317 317 317 317 317 317 316 316 316 316 316 316 315 315 315 315 315 313 311 310 309 309 309 309 308 306 305 309 311 312 313 315 317 321 325 326 325 324 322 320 318 316 314 311 306 301 294 290 288 289 291 290 288 285 283 287 291 297 303 309 310 309 306 305 304 304 304 304 307 313 319 321 319 315 312 313 319 328 339 346 349 349 351 352 350 345
318 317 317 317 317 316 316 316 317 317 317 316 316 316 316 316 315 315 314 312 310 309 309 309 308 305 304 306 309 310 312 315 320 324 327 327 326 326 325 325 324 322 320 316 312 307 302 296 290 286 283 283 285 289 289 292 296 301 305 308 309 309 309 309 311 313 315 314 315 321 328 329 328 326 324 326 329 336 346 354 359 1 1 359 357 355
317 317 316 316 316 316 316 317 318 317 317 317 316 317 317 317 316 316 315 314 312 311 311 311 309 307 307 308 309 310 313 317 321 324 326 326 326 326 327 327 327 327 327 325 323 320 317 314 307 295 283 273 273 286 294 301 306 308 308 308 308 309 310 312 317 322 326 328 331 334 337 337 336 333 331 332 337 344 351 356 2 5 6 5 2 358
316 315 315 315 315 315 316 317 317 317 316 316 316 317 318 318 317 316 314 314 313 312 312 311 310 308 309 311 312 314 318 320 321 323 324 325 326 327 328 330 331 331 331 332 333 334 335 337 334 321 298 278 276 285 297 306 312 314 314 312 312 312 314 317 323 329 333 336 341 346 349 349 348 345 341 338 338 346 355 359 2 5 7 7 5 2
316 315 315 315 315 315 315 316 316 316 315 315 315 316 317 318 318 317 316 316 315 313 312 311 310 310 311 313 316 319 321 321 322 322 324 325 326 327 329 332 333 334 334 336 339 341 342 344 346 344 330 305 294 296 304 310 315 319 322 323 323 323 324 326 330 334 338 340 345 350 354 356 357 357 355 352 346 349 358 2 3 4 6 7 7 6
316 315 315 315 315 315 315 315 315 314 314 314 314 315 316 317 317 318 318 319 317 315 313 312 312 312 314 316 319 321 321 321 321 322 324 325 326 328 329 332 334 335 336 338 342 344 344 341 339 339 339 340 334 325 320 317 319 324 328 332 333 334 334 334 336 339 342 344 348 352 356 358 360 0 0 358 353 351 357 2 2 3 4 7 7 7
Height
699 697 696 695 694 691 689 689 688 686 683 682 682 681 679 678 677 676 675 674 672 671 669 668 666 665 664 662 661 660 659 658 656 654 653 651 649 647 645 644 642 640 638 637 635 634 633 632 630 629 628 627 626 625 624 623 622 621 619 619 618 617 615 615 614 614 614 614 613 612 610 609 608 607 605 604 603 602 601 600 600 599 599 598 598 597
698 695 694 693 692 689 686 685 686 685 682 680 679 678 677 676 674 674 673 671 670 669 668 666 664 663 661 659 658 657 655 654 653 651 649 648 646 644 642 640 639 637 635 634 632 631 629 629 627 626 625 624 623 622 621 620 619 618 617 616 615 614 614 613 612 612 611 610 609 609 608 606 605 604 603 602 600 600 599 598 597 597 596 595 595 594
696 693 692 691 690 688 685 683 683 682 681 679 677 676 675 674 672 671 670 669 668 667 666 664 663 661 659 657 655 654 652 651 649 648 646 644 643 641 639 637 635 634 632 631 629 628 627 625 624 623 622 621 620 619 618 617 616 615 615 614 613 612 611 610 609 609 608 607 606 605 604 603 602 601 600 599 598 597 596 596 595 594 593 592 592 591
696 693 690 689 688 686 684 682 680 679 679 677 675 674 673 672 670 669 668 667 666 664 663 662 660 659 656 654 653 651 650 649 647 645 644 642 640 638 636 634 633 631 630 628 627 626 624 623 622 620 619 618 617 616 615 614 614 613 612 611 610 609 608 607 606 605 604 604 603 602 601 600 599 598 597 596 595 594 594 593 592 591 590 589 589 588
695 693 690 688 686 684 682 681 679 678 676 675 674 672 671 670 669 667 666 665 664 662 661 659 658 656 654 652 651 649 648 646 644 643 641 639 637 635 633 632 630 629 627 626 624 623 622 620 619 618 616 615 614 613 613 612 611 610 609 608 607 605 604 604 603 602 601 600 600 599 598 597 596 595 593 592 592 591 591 590 589 588 587 587 586 586
694 692 690 688 685 682 680 679 678 676 674 673 672 671 669 668 667 665 664 662 661 659 658 656 655 654 652 650 649 647 645 644 642 640 639 637 634 633 631 629 628 626 625 623 622 621 619 618 617 615 614 613 612 611 610 609 608 607 606 605 604 602 601 600 600 599 598 597 596 595 594 594 593 592 590 589 589 588 587 586 585 585 584 584 584 584
692 691 689 686 684 681 679 677 676 675 674 672 670 669 668 666 665 664 662 660 659 657 655 653 652 651 649 648 646 645 643 641 639 638 636 634 632 630 628 627 625 624 622 621 620 619 618 616 615 614 613 611 610 609 608 606 605 604 603 602 601 599 599 598 597 596 595 594 593 592 591 590 589 589 588 587 586 585 584 584 583 583 582 582 582 581
690 688 687 685 682 679 677 676 675 674 673 671 669 667 665 664 662 661 659 658 657 655 653 650 649 648 647 645 644 643 641 639 637 635 633 631 629 628 626 624 623 621 620 619 618 617 616 614 613 612 611 609 608 607 605 604 602 601 600 599 598 597 596 594 594 593 592 590 589 589 587 586 586 585 584 584 583 582 581 581 580 580 580 580 579 578
689 686 683 682 681 678 675 674 674 673 672 670 669 666 664 661 659 657 655 654 654 653 651 649 646 645 644 643 642 640 639 637 634 632 630 628 627 625 624 622 620 619 618 617 616 615 614 613 611 610 609 607 605 604 602 601 599 598 597 596 595 594 593 591 590 589 588 587 586 585 584 583 582 582 581 580 580 579 579 578 578 577 577 577 576 575
687 684 681 680 679 678 676 674 672 672 671 669 667 665 663 660 657 654 651 650 650 650 649 648 645 643 641 640 639 638 636 634 631 629 628 626 624 623 621 620 618 617 616 615 614 613 612 610 609 608 606 604 603 601 599 598 596 595 594 593 592 590 589 588 587 586 585 584 583 582 581 580 579 579 578 577 576 576 575 575 575 574 574 573 573 572
684 682 680 679 677 677 676 674 672 670 669 667 665 663 662 660 657 654 650 647 646 646 646 645 644 641 639 637 635 634 633 630 628 625 624 623 622 621 619 618 616 615 614 613 612 611 609 608 607 605 604 602 599 598 596 594 593 592 591 589 589 587 586 585 584 583 582 581 580 579 578 577 576 575 574 574 573 573 572 572 572 571 570 570 569 568
682 681 680 679 677 676 674 673 670 669 667 665 663 660 658 658 657 655 651 647 645 644 643 642 640 639 638 635 633 631 629 627 624 622 621 620 619 618 617 616 615 614 612 611 609 608 607 606 604 602 600 599 596 595 593 592 590 589 588 587 585 584 583 582 581 580 579 578 577 575 574 574 573 572 572 572 571 570 570 569 569 568 568 567 566 565
682 681 680 678 677 675 673 671 669 667 665 664 662 659 656 655 655 654 652 648 645 643 641 639 636 635 634 634 632 629 626 624 622 620 619 618 618 617 616 614 612 611 610 608 606 605 604 603 601 599 598 596 594 592 590 589 587 586 585 584 582 581 580 579 578 577 575 574 573 572 571 570 570 569 569 569 568 568 567 566 566 565 565 564 564 563
682 680 679 677 675 674 672 670 668 665 664 662 661 659 657 655 654 652 650 646 644 641 640 637 634 632 631 630 629 627 624 622 620 618 617 617 616 616 614 612 610 608 607 606 604 602 601 600 598 596 594 593 591 589 587 585 584 583 582 580 579 578 577 576 574 574 572 571 570 569 569 568 567 567 566 566 565 564 564 564 563 562 562 561 560 560
681 680 678 675 674 672 671 669 667 664 663 661 660 658 656 654 652 650 648 644 641 639 638 635 632 630 629 628 627 625 623 621 619 617 616 614 614 614 613 611 608 605 604 603 601 599 598 597 596 594 592 590 588 586 584 583 581 580 579 577 576 575 574 572 571 570 569 568 567 567 566 565 564 564 563 563 562 562 561 560 560 559 559 558 558 557
681 679 677 674 672 671 669 668 666 664 662 660 659 657 655 652 650 648 646 643 640 638 636 633 630 627 624 624 625 624 622 620 618 616 614 612 611 612 612 609 606 603 601 600 599 597 595 594 593 591 589 587 585 584 582 580 578 577 576 574 573 572 571 569 568 567 566 565 564 564 563 562 562 561 560 559 559 558 558 557 557 556 556 555 554 554
680 678 676 674 671 669 668 667 665 664 661 659 657 655 653 651 649 647 645 642 640 637 635 633 629 625 621 620 621 623 622 620 617 614 612 609 609 609 610 608 604 601 599 598 596 595 593 592 590 588 586 585 583 581 579 577 576 574 573 571 570 569 568 567 566 565 564 563 562 561 560 559 558 558 557 556 556 555 555 554 554 553 553 552 551 551
679 677 675 673 670 668 666 665 664 662 660 658 655 653 651 649 648 646 644 642 640 637 634 632 630 627 623 620 619 620 621 619 616 613 610 608 606 606 607 606 603 599 597 595 594 592 591 589 587 585 584 582 580 579 577 575 573 571 570 569 568 567 566 565 564 562 561 560 559 558 557 556 555 554 554 553 553 552 552 551 551 550 550 549 548 548
677 676 674 672 669 667 665 664 663 660 658 656 654 652 649 648 647 646 644 642 639 637 635 632 629 627 624 621 619 618 619 618 615 612 609 605 604 603 604 603 600 597 594 592 591 589 588 586 584 583 581 579 578 576 574 572 570 569 568 566 565 564 563 562 560 559 558 557 556 554 554 553 552 551 551 550 549 549 549 548 548 547 547 546 545 544
676 674 673 671 669 666 664 662 661 659 657 655 653 651 649 647 646 644 642 640 638 636 634 632 629 626 624 621 618 617 617 616 614 611 607 604 602 601 601 600 597 594 592 589 588 587 585 583 581 579 578 577 575 574 572 570 568 567 565 563 562 561 559 558 557 556 555 554 553 552 551 550 549 548 548 547 546 546 546 545 545 544 544 543 542 541
674 672 671 670 668 665 662 660 659 658 657 655 653 651 649 646 644 642 640 638 636 634 632 630 627 624 622 619 617 615 615 615 613 610 606 603 600 598 598 597 595 592 589 587 585 584 583 580 579 577 576 574 573 571 569 568 566 564 562 561 559 558 556 555 554 553 552 551 550 549 548 547 546 545 544 543 543 543 543 542 542 541 540 540 539 538
674 670 669 668 666 664 661 659 657 656 656 654 653 650 647 645 642 640 638 636 634 632 630 628 625 623 621 618 615 614 614 614 612 609 606 601 597 595 595 595 593 589 586 584 583 581 580 579 577 575 573 572 570 569 567 565 564 562 560 558 557 555 554 553 551 550 549 548 547 546 545 544 543 542 541 540 540 540 539 539 539 538 537 536 536 535
672 669 667 665 664 662 660 658 656 655 654 653 651 649 646 644 641 639 636 635 633 631 628 626 623 620 618 616 614 613 612 612 611 609 605 600 595 593 593 592 590 587 584 582 581 579 578 576 574 573 571 569 568 566 564 563 561 559 558 556 554 553 551 550 549 547 546 545 544 543 542 541 540 539 538 538 537 537 537 536 535 535 534 533 533 532
669 667 665 663 662 660 659 657 655 654 652 650 649 646 644 643 640 638 636 634 631 629 626 623 620 617 615 614 613 611 610 610 609 607 604 599 595 592 591 590 588 585 582 580 579 578 575 574 572 570 569 567 565 564 562 560 558 557 555 553 552 550 549 548 546 545 544 542 541 540 539 538 537 536 535 535 534 534 533 533 532 531 530 530 529 529
668 665 664 662 661 659 658 656 654 652 650 649 646 644 642 640 639 636 634 632 630 627 624 621 618 615 613 612 611 609 608 608 607 605 603 598 594 590 589 589 587 584 580 578 577 576 574 571 569 567 566 564 562 561 559 557 555 554 552 551 549 548 547 545 544 542 541 539 538 537 536 534 534 533 532 532 531 530 530 529 529 528 527 527 526 525
666 664 663 661 659 658 656 654 653 651 649 647 645 643 641 639 636 634 632 630 628 625 622 619 616 614 612 611 609 607 605 605 604 604 601 597 593 589 587 587 586 583 579 576 575 574 572 569 566 564 563 561 559 558 556 554 553 551 550 549 547 546 544 542 541 539 538 536 535 534 533 532 531 530 529 529 528 527 527 526 525 525 524 523 523 522
665 663 661 659 658 656 654 652 650 649 647 645 644 642 640 637 635 632 630 628 626 624 621 618 615 613 611 609 607 605 604 603 602 601 599 597 593 589 586 585 584 581 578 575 573 571 569 567 564 561 559 558 556 554 553 551 550 549 547 546 544 543 541 539 538 536 535 534 532 531 530 529 528 527 526 526 525 524 524 523 522 521 520 520 519 518
663 661 659 657 655 654 652 650 648 646 645 643 642 640 639 637 634 631 628 627 625 623 620 618 615 613 610 608 605 604 602 601 600 599 598 595 592 588 585 584 582 580 577 573 570 568 567 564 561 559 557 554 553 551 550 549 547 546 544 543 541 540 538 536 535 534 532 531 529 528 527 526 525 524 523 523 522 521 520 519 518 518 517 516 515 514
660 659 657 655 653 651 649 648 646 644 643 641 639 638 637 635 633 630 628 626 624 622 619 617 615 613 610 607 604 602 600 599 598 597 596 594 590 587 584 583 581 579 576 572 567 564 563 561 559 556 554 552 550 549 547 546 545 543 542 540 538 536 535 533 532 530 529 528 527 525 524 523 522 521 520 519 518 517 517 516 515 515 514 513 512 511
657 656 654 652 650 649 647 645 643 642 640 639 638 636 635 634 632 629 627 625 623 621 619 616 614 612 609 606 603 600 597 596 596 596 595 593 589 585 583 582 579 578 575 572 566 561 557 556 555 554 552 550 549 547 545 544 542 540 539 537 534 533 531 530 529 527 526 525 524 522 521 520 519 518 517 516 515 514 513 513 513 512 511 510 509 508
655 653 651 649 648 646 645 643 641 639 638 637 635 634 633 631 630 628 626 624 622 620 618 615 613 611 609 607 603 599 595 594 594 594 594 592 588 584 582 580 578 576 575 573 568 561 554 551 550 551 550 549 547 545 543 541 539 538 536 534 532 530 528 527 526 524 523 522 520 519 518 517 516 515 514 513 512 511 510 509 509 509 507 506 505 504
654 652 650 648 646 644 643 641 639 638 636 634 633 632 631 629 628 626 625 623 621 619 617 615 612 610 609 607 604 600 596 593 593 593 593 590 586 583 581 579 577 574 573 572 570 565 558 551 548 547 548 546 544 542 540 539 537 535 533 531 529 527 526 525 524 522 520 519 518 517 515 514 513 512 510 509 508 507 506 506 505 505 504 503 502 500
652 650 648 646 644 643 641 639 638 636 634 633 632 630 629 628 626 625 624 622 620 619 616 614 611 609 607 605 602 599 596 594 592 592 591 589 585 582 579 578 575 573 571 569 568 565 561 554 549 546 544 543 541 540 538 536 535 533 532 530 527 525 524 523 521 519 518 517 515 514 512 511 509 508 507 506 505 504 503 502 501 501 500 499 498 497
651 649 647 645 643 641 639 638 636 635 633 632 630 629 627 626 624 623 622 620 619 617 615 613 610 608 605 603 600 597 594 593 591 590 590 588 585 581 578 576 574 572 569 567 565 563 559 555 551 546 542 539 538 537 536 535 533 532 530 528 526 524 522 520 519 517 515 514 512 510 509 507 506 504 504 502 501 500 499 498 497 497 496 496 495 494
649 647 645 643 641 639 638 636 635 633 632 630 629 627 626 624 623 621 620 618 617 615 613 611 609 607 605 602 599 595 593 591 589 589 588 586 584 580 577 575 573 571 568 565 563 560 557 553 550 547 543 538 535 534 534 533 532 530 528 526 524 522 520 518 517 515 513 511 509 507 505 504 502 501 499 498 497 496 495 494 494 493 492 492 492 491
648 646 644 642 640 639 637 635 633 632 630 629 627 626 624 623 621 619 618 616 614 613 611 609 608 606 604 601 599 595 592 589 588 587 586 584 582 579 577 574 571 570 568 564 561 559 555 551 548 545 543 539 535 532 531 530 530 528 526 524 522 520 518 516 514 512 510 508 506 504 503 501 499 498 496 494 493 492 491 490 489 489 489 488 488 487
647 645 643 641 639 638 636 634 632 631 629 627 625 624 622 621 619 617 615 614 612 610 609 607 605 603 601 599 597 594 591 589 587 585 584 582 580 578 575 572 570 568 567 564 561 558 554 551 547 544 541 539 536 533 530 528 527 525 524 521 519 517 515 513 511 510 508 506 503 501 499 498 496 494 492 491 490 489 487 486 486 485 484 484 484 483
646 644 642 640 639 637 635 633 631 629 628 626 624 622 621 619 617 615 613 611 609 608 606 604 602 600 598 596 594 592 589 587 585 583 581 580 578 576 574 571 568 567 565 563 560 557 554 550 546 543 540 538 536 534 531 529 526 524 521 519 517 515 513 510 509 507 505 503 501 499 497 495 493 491 489 488 486 485 484 482 482 481 481 480 480 479
646 644 642 640 638 637 635 633 631 629 627 625 623 621 619 617 615 613 611 609 607 605 603 601 599 597 595 593 591 589 587 585 583 581 579 578 576 574 572 569 567 565 563 562 560 557 554 550 547 544 542 539 535 533 531 529 527 524 520 517 514 512 510 508 506 504 503 500 498 496 494 492 490 489 487 485 483 482 481 479 478 478 477 477 476 476
645 643 641 640 638 636 634 632 630 628 626 624 622 620 618 615 613 611 609 607 605 603 601 599 597 595 593 590 589 587 585 583 581 579 577 575 574 572 570 568 565 563 561 560 558 556 553 551 548 546 544 540 537 533 531 529 526 524 520 517 513 509 507 505 504 502 500 498 496 494 492 489 488 486 484 482 481 479 478 476 475 474 474 474 474 473
645 643 641 639 637 635 634 631 629 627 625 623 620 618 616 614 612 609 607 605 603 601 599 597 595 592 590 588 586 584 583 580 579 577 575 573 571 569 568 566 564 562 560 559 556 554 553 551 548 545 543 540 538 535 532 529 526 524 521 518 514 509 505 503 502 500 498 496 494 492 490 488 485 484 482 480 478 476 475 474 473 472 471 471 471 470
645 643 640 639 636 634 632 630 628 626 624 622 620 617 615 613 611 609 606 604 601 599 597 595 593 590 587 585 583 582 580 579 577 574 573 571 569 568 566 565 564 562 560 557 555 553 551 550 548 545 543 540 538 535 532 528 525 523 521 518 514 509 505 501 499 498 497 494 492 490 488 486 484 481 479 477 475 474 472 471 470 469 469 468 468 468
644 642 640 638 636 634 631 629 627 625 623 621 619 616 614 612 610 608 605 603 600 598 595 594 591 589 586 583 580 579 577 576 574 573 571 569 568 567 566 564 563 561 559 557 554 552 550 548 546 544 542 540 539 536 532 528 524 521 519 517 514 510 506 501 498 496 495 493 490 488 486 484 482 479 477 475 473 471 470 469 468 467 467 466 465 465
644 642 639 637 635 633 630 628 626 624 622 620 618 615 613 611 609 607 605 602 599 597 594 592 590 588 585 582 579 577 575 573 572 571 569 568 567 566 565 564 562 560 558 556 554 551 549 547 544 543 541 540 538 535 532 528 524 521 518 516 514 511 508 504 499 496 494 491 489 487 484 483 480 478 476 474 471 470 469 467 466 465 464 464 463 462
643 641 639 637 634 632 630 628 625 623 621 619 617 614 612 610 608 606 604 601 599 596 594 592 589 587 584 581 578 576 573 571 570 569 568 567 566 565 564 562 560 559 557 555 553 551 549 546 544 541 540 539 537 534 531 528 524 521 518 515 513 510 507 504 500 497 494 491 488 485 483 481 479 477 475 473 470 469 467 466 465 464 462 461 461 460
643 640 638 636 634 632 629 627 625 623 620 618 615 613 611 609 607 605 603 601 598 595 593 591 589 587 584 580 578 575 573 570 569 568 567 566 565 564 562 561 559 558 556 554 552 550 548 546 544 541 539 537 535 532 530 527 524 521 517 514 511 508 505 502 499 496 494 491 488 485 482 480 479 477 474 472 470 468 467 465 464 463 461 460 459 458
642 640 638 635 633 631 629 626 624 622 619 617 614 612 610 608 606 604 602 599 597 595 592 590 588 586 584 581 578 576 573 570 569 567 566 565 564 562 561 559 558 556 554 552 550 548 546 544 542 540 539 537 534 531 528 526 524 521 518 514 511 508 504 501 498 495 493 491 488 485 483 480 478 476 474 472 470 468 466 465 463 462 460 459 457 456
642 639 637 635 633 630 628 626 624 621 619 616 614 611 609 607 605 603 601 599 597 594 592 590 587 585 583 580 579 576 574 572 569 568 566 564 563 561 560 558 556 554 553 550 549 546 544 542 540 539 538 536 534 531 527 525 523 521 518 514 511 508 504 501 498 495 493 490 488 486 483 481 479 477 474 472 470 468 466 464 463 461 459 458 456 455
641 639 637 634 632 630 627 625 623 621 618 616 613 610 608 606 604 603 600 598 596 594 592 589 587 584 582 580 578 576 574 572 570 569 567 565 563 561 559 558 556 554 551 549 547 544 542 540 539 538 536 535 534 531 528 525 523 520 517 514 511 508 505 502 499 496 493 491 488 486 484 482 480 478 476 473 471 469 467 465 463 461 459 457 456 454
641 639 636 634 632 629 627 625 622 620 618 615 613 610 607 605 603 601 600 598 595 593 591 589 587 584 582 579 578 576 574 572 570 569 567 565 564 562 560 558 556 554 551 549 546 544 541 539 538 536 535 534 533 531 529 526 523 519 516 514 511 508 505 502 499 497 494 492 489 487 485 483 480 478 476 474 472 470 468 465 463 461 459 457 455 454
640 638 636 634 631 629 627 624 622 620 617 615 612 609 607 604 602 600 598 596 594 593 590 589 587 584 582 580 578 576 574 573 571 569 567 565 564 562 560 559 557 555 553 550 548 546 544 541 538 536 534 534 533 532 530 527 524 520 517 514 511 508 506 503 500 498 495 493 491 488 486 484 481 479 478 476 474 471 469 467 465 463 460 458 456 454